Location: Boullarre
(49.1305°N, 3.0047°E)
Time: 06:11:31
(UTC+00:00)

SL-16 R/B - Visible Passes

Search period start: 24 September 2023 00:00
Search period end: 04 October 2023 00:00
Orbit: 841 x 846 km, 71.0° (Epoch: 23 September)

Date Brightness Start Highest point End Pass type
(mag) Time Alt. Az. Time Alt. Az. Time Alt. Az.
24 Sep 5.2 00:22:20 10° N 00:23:54 11° NNE 00:25:30 10° NE visible
24 Sep 3.7 02:04:45 10° NNW 02:09:55 34° NE 02:15:02 10° ESE visible
24 Sep 2.3 03:48:45 10° NW 03:54:14 51° WSW 03:59:42 10° S visible
24 Sep 3.0 18:44:18 10° SW 18:49:51 56° NW 18:55:28 10° NNE visible
24 Sep 5.0 20:31:56 10° WNW 20:35:17 16° NNW 20:38:37 10° N visible
25 Sep 5.2 00:07:59 10° N 00:09:25 11° NNE 00:10:50 10° NE visible
25 Sep 3.8 01:50:20 10° NNW 01:55:27 33° NE 02:00:32 10° ESE visible
25 Sep 2.2 03:34:17 10° NW 03:39:49 53° WSW 03:45:17 10° S visible
25 Sep 2.9 18:29:49 10° SW 18:35:24 58° WNW 18:41:02 10° NNE visible
25 Sep 5.0 20:17:22 10° WNW 20:20:47 16° NNW 20:24:14 10° N visible
25 Sep 5.1 23:53:41 10° N 23:54:55 11° NNE 23:56:09 10° NE visible
26 Sep 3.8 01:35:54 10° NNW 01:40:59 32° NE 01:46:01 10° ESE visible
26 Sep 2.2 03:19:50 10° NW 03:25:23 55° WSW 03:30:53 10° S visible
26 Sep 2.9 18:15:21 10° SW 18:20:57 60° WNW 18:26:35 10° NNE visible
26 Sep 4.9 20:02:48 10° WNW 20:06:18 16° NW 20:09:49 10° N visible
26 Sep 5.1 23:39:23 10° NNE 23:40:25 10° NNE 23:41:26 10° NNE visible
27 Sep 3.8 01:21:29 10° NNW 01:26:30 31° NE 01:27:14 30° ENE visible
27 Sep 3.0 03:05:23 10° NW 03:17:46 - S 03:08:49 36° NW visible
27 Sep 2.9 18:00:53 10° SW 18:06:29 62° WNW 18:12:09 10° NNE visible
27 Sep 4.9 19:48:14 10° WNW 19:51:49 17° NW 19:55:24 10° N visible
27 Sep 5.1 23:25:08 10° NNE 23:25:54 10° NNE 23:26:41 10° NNE visible
28 Sep 4.0 01:07:03 10° NNW 01:10:43 27° NNE 01:10:43 27° NNE visible
28 Sep 4.0 02:50:56 10° NW 02:52:27 19° NW 02:52:27 19° NW visible
28 Sep 4.8 19:33:40 10° WNW 19:37:20 17° NW 19:41:00 10° N visible
28 Sep 5.1 23:11:02 10° NNE 23:11:24 10° NNE 23:11:46 10° NNE visible
29 Sep 4.3 00:52:38 10° NNW 00:55:15 22° N 00:55:15 22° N visible
29 Sep 4.4 02:36:29 10° NW 02:37:01 13° NW 02:37:01 13° NW visible
29 Sep 4.8 19:19:07 10° WNW 19:22:51 17° NW 19:26:35 10° N visible
30 Sep 4.5 00:38:12 10° NNW 00:40:11 19° N 00:40:11 19° N visible
30 Sep 4.8 19:04:33 10° WNW 19:08:21 18° NW 19:12:11 10° N visible
01 Oct 4.7 00:23:46 10° NNW 00:25:20 17° N 00:25:20 17° N visible
01 Oct 4.7 18:50:01 10° W 18:53:52 18° NW 18:57:46 10° N visible
02 Oct 4.8 00:09:21 10° NNW 00:10:36 15° N 00:10:36 15° N visible
02 Oct 4.7 18:35:27 10° W 18:39:23 19° NW 18:43:21 10° N visible
02 Oct 4.8 23:54:55 10° NNW 23:55:59 14° N 23:55:59 14° N visible
03 Oct 4.6 18:20:54 10° W 18:24:55 19° NW 18:28:56 10° N visible
03 Oct 4.9 23:40:30 10° NNW 23:41:25 14° N 23:41:25 14° N visible
